Tracking 31027 objects as of 19-Jul-2025
HD Live streaming from Space Station
objects crossing your sky now

COSMOS 1176 FUEL CORE

Track COSMOS 1176 FUEL CORE now!
10-day predictions


NORAD ID: 11971
Int'l Code: 1980-034D
Perigee: 875.1 km
Apogee: 948.1 km
Inclination: 64.8 °
Period: 103.1 minutes
Semi major axis: 7282 km
RCS: 0.1595 m2 (medium)
Launch date: April 29, 1980
Source: Commonwealth of Independent States (former USSR) (CIS)
Launch site: TYURATAM MISSILE AND SPACE COMPLEX (TTMTR)

Note: This is SATELLITE DEBRIS
Your satellite tracking list
IRIDIUM 33 DEB
Track 1 satellite(s)




NASA's NSSDC Master Catalog

Two Line Element Set (TLE):
1 11971U 80034D   25199.52112326 -.00000074  00000-0  13791-4 0  9999
2 11971  64.8319 249.9825 0050126 294.2272 174.5938 13.96921367299007
Source of the keplerian elements: AFSPC